Location: Mouss�
(47.9236°N, 1.2701°W)
Time: 07:37:01
(UTC+00:00)

Meteor 1-11 Rocket - Pass Details

Date: 03 March 2021
Orbit: 831 x 916 km, 81.2° (Epoch: 12 April)

Event Time Altitude Azimuth Distance (km) Brightness Sun altitude
Rises 19:24:05 0° 168° (SSE) 3,465 6.7 -16.1°
Reaches altitude 10° 19:26:39 10° 162° (SSE) 2,518 5.9 -16.5°
Maximum altitude 19:31:59 42° 93° (E) 1,208 4.0 -17.4°
Drops below altitude 10° 19:37:14 10° 24° (NNE) 2,483 6.0 -18.2°
Sets 19:39:44 0° 18° (NNE) 3,413 6.8 -18.6°
